User: anonymous   Login
Location: Unspecified
(0.0000°N, 0.0000°E)
Time: 13:45:23
(UTC+00:00)
Language:

LITSAT 1 - Orbit

View from above orbital plane
View from above orbital plane
View from above satellite
View from above satellite

Ground track
Ground track

The orbit data is extracted from the following two-line orbital elements,

1 39570U 98067EP  14143.05577057  .11509081  12469-4  11769-2 0  9990
2 39570 051.5911 212.4729 0009494 355.0964 008.1250 16.36920037 13112
Epoch (UTC): 23 May 2014 01:20:18
Eccentricity: 0.0009494
inclination: 51.5911°
perigee height: 168 km
apogee height: 180 km
right ascension of ascending node: 212.4729°
argument of perigee: 355.0964°
revolutions per day: 16.36920037
mean anomaly at epoch: 8.1250°
orbit number at epoch: 1311

The dashed part of the orbit path shows where the satellite is in the earth's shadow,  

DLR